Powrót do katalogu

STARLINK-37311

AktywnyŁącznośćVLEO
NORAD 69161·PAYLOAD·🇺🇸 United States

Wystrzelony May 21, 2026 z Cape Canaveral Space Force Station

Loading…

Następne Przeloty (najbliższe 24 godziny)

TLE

ŚwieżeSource: CelesTrak SupGP

Epoka: Sep 15, 2026, 03:13 UTC

1 69161C 26111P   26258.13451389 -.00015869  00000+0 -46877-3 0  2584
2 69161  53.1577  90.8445 0001189  78.3047 308.1255 15.34404205    14

Śledź STARLINK-37311 w czasie rzeczywistym z AllMySat

Download on the App Store